This demonstration page uses our WeatherBlox Daily Observations layout. Learn more.

Left ArrowRight Arrow

31.31129, -92.44514

Hourly Observations for December 22, 2015

Temp ( °F °C ) Dew Point ( °F °C ) Humidity (%) Winds ( mph kmh ) Pressure ( in mb ) Visibility ( mi km ) Precip ( " mm )
12:04 am 00:04 Mostly Cloudy with Mist and Fog 66 18.9 66 18.9 100 100 W 6 9 29.91 1013 2 3 0.00 0.00
12:13 am 00:13 Mostly Cloudy with Mist and Fog 66 18.9 66 18.9 100 100 WNW 7 11 29.88 1012 1 2 0.00 0.00
12:20 am 00:20 Mostly Cloudy with Mist and Fog 66 18.9 66 18.9 100 100 NW 5 7 29.88 1012 5 8 0.00 0.00
12:27 am 00:27 Cloudy with Mist and Fog 66 18.9 66 18.9 100 100 WNW 5 7 29.88 1012 5 8 0.00 0.00
12:45 am 00:45 Cloudy with Mist and Fog 66 18.9 66 18.9 100 100 Calm 29.88 1012 5 8 0.00 0.00
12:53 am 00:53 Cloudy with Mist and Fog 65 18.3 65 18.3 100 100 Calm 29.89 1012 5 8 0.00 0.00
12:57 am 00:57 Cloudy with Fog 65 18.3 65 18.3 100 100 Calm 29.88 1012 1 1 0.00 0.00
1:20 am 01:20 Cloudy with Fog 65 18.3 65 18.3 100 100 Calm 29.88 1012 0 0 0.00 0.00
1:30 am 01:30 Cloudy with Fog 65 18.3 65 18.3 100 100 NNW 3 6 29.88 1012 0 0 0.00 0.00
1:53 am 01:53 Mostly Cloudy with Fog 64 17.8 64 17.8 100 100 N 5 7 29.88 1012 0 0 0.00 0.00
2:00 am 02:00 Mostly Cloudy with Fog 64 17.8 64 17.8 100 100 N 5 7 29.88 1012 0 0 0.00 0.00
2:18 am 02:18 Cloudy with Mist and Fog 66 18.9 66 18.9 100 100 N 3 6 29.88 1012 1 2 0.00 0.00
2:33 am 02:33 Mostly Cloudy with Fog 66 18.9 66 18.9 100 100 Calm 29.88 1012 1 1 0.00 0.00
2:53 am 02:53 Cloudy with Mist and Fog 65 18.3 65 18.3 100 100 N 6 9 29.87 1012 2 2 0.00 0.00
2:57 am 02:57 Cloudy with Mist and Fog 65 18.3 65 18.3 100 100 NNW 7 11 29.85 1011 3 5 0.00 0.00
3:12 am 03:12 Cloudy with Mist and Fog 64 17.8 64 17.8 100 100 NNW 6 9 29.85 1011 5 8 0.00 0.00
3:26 am 03:26 Cloudy with Mist and Fog 64 17.8 64 17.8 100 100 N 5 7 29.85 1011 3 4 0.00 0.00
3:37 am 03:37 Cloudy with Mist and Fog 64 17.8 64 17.8 100 100 N 5 7 29.85 1011 4 6 0.00 0.00
3:53 am 03:53 Cloudy with Mist and Fog 64 17.8 64 17.8 100 100 NNE 3 6 29.85 1011 5 8 0.00 0.00
4:53 am 04:53 Cloudy with Mist and Fog 64 17.8 64 17.8 100 100 Calm 29.85 1011 5 8 0.00 0.00
5:01 am 05:01 Cloudy with Mist and Fog 63 17.2 63 17.2 100 100 Calm 29.83 1010 3 4 0.00 0.00
5:09 am 05:09 Cloudy with Mist and Fog 63 17.2 63 17.2 100 100 W 3 6 29.85 1011 1 2 0.00 0.00
5:24 am 05:24 Cloudy with Mist and Fog 63 17.2 63 17.2 100 100 WNW 5 7 29.85 1011 2 3 0.00 0.00
5:28 am 05:28 Cloudy with Mist and Fog 63 17.2 63 17.2 100 100 WNW 5 7 29.85 1011 2 3 0.00 0.00
5:47 am 05:47 Cloudy with Mist and Fog 63 17 63 17 100 100 NW 5 7 29.85 1011 2 3 0.00 0.00
5:53 am 05:53 Cloudy with Mist and Fog 63 17.2 63 17.2 100 100 NW 3 6 29.85 1011 2 3 0.00 0.00
6:01 am 06:01 Cloudy with Mist and Fog 63 17.2 63 17.2 100 100 NW 5 7 29.85 1011 2 3 0.00 0.00
6:08 am 06:08 Cloudy with Mist and Fog 63 17.2 63 17.2 100 100 NW 5 7 29.85 1011 1 2 0.00 0.00
6:15 am 06:15 Mostly Cloudy with Fog 63 17.2 63 17.2 100 100 NNW 3 6 29.85 1011 1 1 0.00 0.00
6:32 am 06:32 Mostly Cloudy with Fog 63 17.2 63 17.2 100 100 Calm 29.85 1011 0 0 0.00 0.00
6:53 am 06:53 Mostly Cloudy with Fog 62 16.7 62 16.7 100 100 Calm 29.86 1011 0 0 0.00 0.00
7:53 am 07:53 Mostly Cloudy with Fog 62 16.7 62 16.7 100 100 WNW 3 6 29.88 1012 5 8 0.00 0.00
8:29 am 08:29 Cloudy with Fog 63 17.2 63 17.2 100 100 SW 3 6 29.88 1012 1 1 0.00 0.00
8:36 am 08:36 Cloudy with Fog 63 17.2 63 17.2 100 100 Calm 29.88 1012 1 1 0.00 0.00
8:38 am 08:38 Cloudy with Fog 63 17.2 63 17.2 100 100 Calm 29.88 1012 0 0 0.00 0.00
8:53 am 08:53 Cloudy with Fog 63 17.2 63 17.2 100 100 E 3 6 29.89 1012 1 1 0.00 0.00
9:01 am 09:01 Cloudy with Mist and Fog 63 17.2 63 17.2 100 100 ENE 5 7 29.88 1012 2 3 0.00 0.00
9:15 am 09:15 Mostly Cloudy with Mist and Fog 64 17.8 64 17.8 100 100 NE 6 9 29.88 1012 2 3 0.00 0.00
9:24 am 09:24 Mostly Cloudy with Mist and Fog 64 17.8 64 17.8 100 100 ENE 5 7 29.88 1012 2 3 0.00 0.00
9:43 am 09:43 Mostly Cloudy with Mist and Fog 65 18.3 64 17.8 97 97 ENE 6 9 29.88 1012 5 8 0.00 0.00
9:53 am 09:53 Mostly Cloudy with Mist and Fog 66 18.9 65 18.3 96 96 E 5 7 29.88 1012 5 8 0.00 0.00
10:53 am 10:53 Cloudy with Mist and Fog 66 18.9 64 17.8 93 93 E 6 9 29.86 1011 6 10 0.00 0.00
11:53 am 11:53 Cloudy with Mist and Fog 67 19.4 65 18.3 93 93 E 6 9 29.83 1010 5 8 0.00 0.00
12:39 pm 12:39 Cloudy with Mist and Fog 67 19.4 65 18.3 93 93 ESE 6 9 29.77 1008 5 8 0.00 0.00
12:53 pm 12:53 Cloudy with Mist and Fog 67 19.4 65 18.3 93 93 E 6 9 29.79 1009 5 8 0.00 0.00
1:00 pm 13:00 Cloudy with Mist and Fog 67 19.4 65 18.3 93 93 ESE 7 11 29.77 1008 5 8 0.00 0.00
1:53 pm 13:53 Mostly Cloudy with Mist and Fog 69 20.6 65 18.3 87 87 SSE 6 9 29.77 1008 6 10 0.00 0.00
2:00 pm 14:00 Partly Cloudy with Mist and Fog 69 20.6 65 18.3 87 87 SE 6 9 29.77 1008 6 10 0.00 0.00
2:37 pm 14:37 Mostly Cloudy 69 20.6 66 18.9 90 90 SE 3 6 29.74 1007 7 11 0.00 0.00
2:53 pm 14:53 Partly Cloudy 69 20.6 66 18.9 90 90 ESE 5 7 29.73 1007 7 11 0.00 0.00
3:14 pm 15:14 Mostly Cloudy with Mist and Fog 69 20.6 66 18.9 90 90 ESE 6 9 29.71 1006 6 10 0.00 0.00
3:53 pm 15:53 Cloudy with Mist and Fog 70 21.1 67 19.4 90 90 SE 5 7 29.73 1007 6 10 0.00 0.00
4:22 pm 16:22 Mostly Cloudy with Mist and Fog 70 21.1 67 19.4 90 90 SE 8 13 29.71 1006 6 10 0.00 0.00
4:31 pm 16:31 Mostly Cloudy with Mist and Fog 69 20.6 67 19.4 93 93 SE 7 11 29.71 1006 6 10 0.00 0.00
4:53 pm 16:53 Partly Cloudy with Mist and Fog 68 20 67 19.4 96 96 SE 9 15 29.72 1006 5 8 0.00 0.00
5:21 pm 17:21 Mostly Cloudy with Mist and Fog 68 20 67 19.4 96 96 SE 6 9 29.71 1006 5 8 0.00 0.00
5:53 pm 17:53 Cloudy 68 20 67 19.4 96 96 SE 8 13 29.72 1006 7 11 0.00 0.00
6:41 pm 18:41 Mostly Cloudy 68 20 67 19.4 96 96 SE 6 9 29.71 1006 7 11 0.00 0.00
6:50 pm 18:50 Mostly Cloudy with Light Rain 68 20 66 19 94 94 SSE 9 15 29.71 1006 7 11 0.00 0.03
6:53 pm 18:53 Cloudy with Light Rain 68 20 67 19.4 96 96 SSE 8 13 29.72 1007 6 10 0.00 0.03
7:19 pm 19:19 Cloudy 68 20 67 19.4 96 96 SSE 8 13 29.71 1006 7 11 0.00 0.03
7:32 pm 19:32 Mostly Cloudy 68 20 67 19.4 96 96 SE 9 15 29.71 1006 8 13 0.00 0.03
7:53 pm 19:53 Mostly Cloudy 68 20 66 18.9 93 93 SSE 9 15 29.72 1007 10 16 0.00 0.03
8:00 pm 20:00 Cloudy 68 20 66 18.9 93 93 SSE 9 15 29.71 1006 10 16 0.00 0.00
8:53 pm 20:53 Cloudy 67 19.4 66 18.9 97 97 SSE 7 11 29.72 1007 10 16 0.00 0.00
9:09 pm 21:09 Cloudy 67 19.4 66 18.9 97 97 SSE 8 13 29.71 1006 10 16 0.00 0.00
9:25 pm 21:25 Partly Cloudy 67 19.4 65 18.3 93 93 SSE 12 19 29.71 1006 10 16 0.00 0.00
9:53 pm 21:53 Mostly Clear 67 19.4 63 17.2 87 87 SSE 17 28 29.71 1006 10 16 0.00 0.00
10:34 pm 22:34 Mostly Cloudy 66 18.9 63 17.2 90 90 SSE 10 17 29.71 1006 10 16 0.00 0.00
10:53 pm 22:53 Mostly Cloudy 66 18.9 63 17.2 90 90 SSE 17 28 29.70 1006 10 16 0.00 0.00
11:53 pm 23:53 Mostly Cloudy 65 18.3 64 17.8 97 97 SSE 12 19 29.67 1005 10 16 0.00 0.00

Powered by AerisWeather